Stations météo

Publicité
Annecy-Meythet, France (7490): Température de l'air & dewpoint: 13.03.2019 16:00:00 - 19.03.2019 16:00:00 (CET)Annecy-Meythet, France (7490): Température de l'air 5cm: 13.03.2019 16:00:00 - 19.03.2019 16:00:00 (CET)Annecy-Meythet, France (7490): Température de l'air -20cm & Température de l'air -100cm: 13.03.2019 16:00:00 - 19.03.2019 16:00:00 (CET)Annecy-Meythet, France (7490): Vitesse du vent & gusts: 13.03.2019 16:00:00 - 19.03.2019 16:00:00 (CET)Annecy-Meythet, France (7490): Direction du vent: 13.03.2019 16:00:00 - 19.03.2019 16:00:00 (CET)Annecy-Meythet, France (7490): reduced air pressure: 13.03.2019 16:00:00 - 19.03.2019 16:00:00 (CET)Annecy-Meythet, France (7490): visibility: 13.03.2019 16:00:00 - 19.03.2019 16:00:00 (CET)Annecy-Meythet, France (7490): Quantités de précipitations: 13.03.2019 16:00:00 - 19.03.2019 16:00:00 (CET)
Date & Time tt [°C] td [°C] tt 5cm [°C] tt -20cm [°C] tt -100cm [°C] ff [km/h] ff [knt] fx [km/h] fx [knt] dd ppp [hPa] vv [km] rr [mm]
19.03.2019 16:00:00 9,9 -2,1 13,4 7,2 6,9 26 14 40 22 N 1024,5 29 0,0
19.03.2019 15:00:00 10,0 -0,2 13,9 6,8 6,8 21 12 37 20 NNE 1024,5 31 0,0
19.03.2019 14:00:00 9,6 -1,2 13,1 6,4 6,9 22 12 38 21 NNE 1024,5 32 0,0
19.03.2019 13:00:00 9,0 -1,7 12,7 5,9 6,8 21 11 39 21 N 1024,8 34 0,0
19.03.2019 12:00:00 8,2 -1,1 8,6 5,4 6,8 21 11 36 20 N 1025,1 4,2 0,0
19.03.2019 11:00:00 7,6 -0,4 11,8 4,8 6,8 18 10 29 16 NE 1025,2 37 0,0
19.03.2019 10:00:00 6,6 0,3 8,3 4,5 6,8 3 1 9 5 E 1025,5 34 0,0
19.03.2019 09:00:00 4,2 -0,4 6,1 4,4 6,8 3 1 6 3 SSE 1025,9 36 0,0
19.03.2019 08:00:00 1,8 -1,1 -2,7 4,6 6,8 0 0 8 4 N 1026,2 20 0,0
19.03.2019 07:00:00 -1,1 -2,1 -3,4 4,8 6,8 4 2 8 4 ENE 1026,1 33 0,0
19.03.2019 06:00:00 -1,6 -2,6 -3,3 5,0 6,8 2 1 6 4 NNE 1025,8 39 0,0
19.03.2019 05:00:00 -1,1 -2,4 -2,6 5,2 6,8 3 2 8 4 N 1025,3 39 0,0
19.03.2019 04:00:00 -0,7 -2,0 -2,5 5,5 6,8 3 2 7 4 NNE 1025,1 40 0,0
19.03.2019 03:00:00 -0,1 -1,8 -1,9 5,8 6,8 5 3 8 4 NE 1024,8 24 0,0
19.03.2019 02:00:00 0,6 -1,0 -0,8 6,0 6,8 2 1 9 5 ENE 1024,7 30 0,0
19.03.2019 01:00:00 1,6 -0,7 -0,4 6,3 6,8 5 3 7 4 S 1024,7 33 0,0
19.03.2019 00:00:00 2,4 -0,5 0,4 6,5 6,8 6 4 10 5 NW 1024,8 45 0,0
18.03.2019 23:00:00 2,8 -0,7 0,8 6,8 6,8 6 4 13 7 NNW 1024,9 46 0,0
18.03.2019 22:00:00 4,0 -0,6 1,4 7,1 6,8 7 4 11 6 NW 1024,8 60 0,0
18.03.2019 21:00:00 3,5 0,0 1,5 7,4 6,8 3 2 9 5 W 1024,7 60 0,0
18.03.2019 20:00:00 5,1 -0,1 3,6 7,6 6,8 6 3 9 5 NE 1024,2 60 0,0
18.03.2019 19:00:00 6,3 -0,7 5,2 7,8 6,8 8 4 19 10 N 1023,4 60 0,0
18.03.2019 18:00:00 6,9 -0,3 6,7 7,9 6,7 12 6 22 12 N 1022,8 60 0,0
18.03.2019 17:00:00 6,9 -0,3 7,0 7,9 6,8 12 7 29 16 NNW 1022,5 60 0,0
18.03.2019 16:00:00 8,1 -1,2 9,3 7,7 6,7 4 2 27 15 N 1022,0 60 0,0
18.03.2019 15:00:00 7,9 -0,8 9,0 7,5 6,7 10 5 23 13 WNW 1022,2 60 0,0
18.03.2019 14:00:00 7,8 -2,8 9,2 7,2 6,7 5 3 20 11 SW 1022,3 60 0,0
18.03.2019 13:00:00 7,8 -2,3 9,7 6,8 6,7 9 5 19 11 NNW 1022,7 60 0,0
18.03.2019 12:00:00 7,0 -0,5 8,0 6,5 6,7 9 5 21 11 NNW 1023,2 57 0,0
18.03.2019 11:00:00 6,2 -0,5 7,4 6,1 6,7 13 7 21 12 NW 1023,2 60 0,0
18.03.2019 10:00:00 6,6 0,7 6,7 5,7 6,7 4 2 14 8 N 1022,9 58 0,0
18.03.2019 09:00:00 4,9 1,2 3,4 5,6 6,7 5 3 10 5 SW 1022,9 45 0,0
18.03.2019 08:00:00 3,1 0,8 1,8 5,7 6,7 5 3 15 8 N 1022,7 53 0,0
18.03.2019 07:00:00 2,3 1,6 0,4 5,8 6,7 4 2 12 6 S 1022,2 10 0,2
18.03.2019 06:00:00 2,5 1,9 2,0 6,0 6,7 6 3 9 5 ESE 1021,6 4,2 0,8
18.03.2019 05:00:00 2,5 2,1 0,5 6,1 6,7 4 2 11 6 NW 1021,1 8 0,0
18.03.2019 04:00:00 1,9 1,3 0,7 6,3 6,7 2 1 9 5 NE 1020,9 15 0,0
18.03.2019 03:00:00 2,7 2,0 1,0 6,5 6,7 4 2 8 5 NW 1020,9 11 0,0
18.03.2019 02:00:00 2,7 2,0 1,9 6,6 6,7 3 2 11 6 E 1021,0 18 0,0
18.03.2019 01:00:00 3,4 2,2 2,5 6,8 6,7 7 4 16 9 ESE 1020,9 36 0,4
18.03.2019 00:00:00 2,7 2,0 1,5 7,0 6,6 6 3 16 9 NE 1020,8 25 0,0
17.03.2019 23:00:00 2,9 1,9 1,6 7,3 6,6 4 2 9 5 N 1020,9 29 0,0
17.03.2019 22:00:00 4,2 3,0 3,1 7,5 6,6 2 1 10 5 NNE 1020,6 21 0,0
17.03.2019 21:00:00 4,4 3,2 4,0 7,7 6,6 5 3 24 13 S 1020,2 34 0,0
17.03.2019 20:00:00 4,5 2,2 3,9 7,9 6,6 10 6 24 13 SSE 1019,7 60 0,0
17.03.2019 19:00:00 4,7 2,4 3,4 8,2 6,6 9 5 33 18 S 1019,2 60 0,2
17.03.2019 18:00:00 3,6 2,4 3,3 8,5 6,6 16 8 29 16 SE 1018,8 12 2,2
17.03.2019 17:00:00 5,2 1,9 4,0 8,8 6,6 13 7 72 39 WNW 1017,7 20 1,4
17.03.2019 16:00:00 6,8 3,0 5,4 8,9 6,6 43 23 74 40 NW 1013,8 6 1,0
17.03.2019 15:00:00 14,9 3,7 14,5 8,7 6,6 29 16 49 26 SW 1010,4 59 0,0
17.03.2019 14:00:00 16,1 3,2 17,0 8,2 6,6 23 13 50 27 SW 1010,3 52 0,0
17.03.2019 13:00:00 16,4 4,4 16,0 7,6 6,6 21 11 53 29 SW 1010,9 58 0,0
17.03.2019 12:00:00 15,6 4,6 17,3 6,9 6,6 19 10 45 25 SW 1011,3 60 0,0
17.03.2019 11:00:00 14,1 2,9 11,9 6,3 6,6 18 10 37 20 SW 1011,2 60 0,0
17.03.2019 10:00:00 9,4 2,7 8,8 6,1 6,6 2 1 10 5 N 1011,5 60 0,0
17.03.2019 09:00:00 6,3 2,6 4,3 6,0 6,6 3 2 7 4 NE 1012,1 60 0,0
17.03.2019 08:00:00 3,4 0,6 -0,2 6,2 6,5 3 2 11 6 E 1012,8 60 0,0
17.03.2019 07:00:00 1,3 -0,6 -0,6 6,5 6,6 4 2 11 6 E 1013,0 60 0,0
17.03.2019 06:00:00 2,4 -0,5 -0,3 6,8 6,6 3 2 11 6 NE 1013,4 60 0,0
17.03.2019 05:00:00 2,6 0,2 0,1 7,1 6,6 6 4 12 7 ENE 1013,8 60 0,0
17.03.2019 04:00:00 2,7 0,6 0,3 7,4 6,6 4 2 11 6 NNE 1014,4 60 0,0
17.03.2019 03:00:00 2,7 0,8 0,7 7,7 6,5 2 1 18 10 NW 1015,0 60 0,0
17.03.2019 02:00:00 3,7 2,1 2,5 8,0 6,6 11 6 15 8 ENE 1015,6 55 0,0
17.03.2019 01:00:00 4,4 2,3 2,7 8,3 6,6 4 2 13 7 ENE 1015,8 60 0,0
17.03.2019 00:00:00 5,6 2,8 4,2 8,7 6,5 12 7 17 9 ENE 1015,7 60 0,0
16.03.2019 23:00:00 6,7 3,5 5,1 9,0 6,5 13 7 18 10 NNE 1015,7 60 0,0
16.03.2019 22:00:00 7,1 4,4 5,7 9,4 6,5 16 9 19 10 NE 1015,9 60 0,0
16.03.2019 21:00:00 8,5 5,2 6,8 9,8 6,5 10 5 16 9 NE 1015,8 60 0,0
16.03.2019 20:00:00 10,1 5,7 7,8 10,1 6,5 10 5 15 8 NE 1015,6 16 0,0
16.03.2019 19:00:00 13,1 5,3 8,8 10,3 6,5 0 0 13 7 N 1015,6 60 0,0
16.03.2019 18:00:00 16,6 5,5 16,8 10,4 6,5 11 6 20 11 WSW 1015,0 58 0,0
16.03.2019 17:00:00 17,4 4,0 19,8 10,3 6,5 12 7 20 11 SSW 1015,2 60 0,0
16.03.2019 16:00:00 17,6 3,8 20,1 9,8 6,5 10 5 21 11 WSW 1015,6 60 0,0
16.03.2019 15:00:00 16,5 4,5 19,8 9,2 6,5 13 7 22 12 SW 1016,9 60 0,0
16.03.2019 14:00:00 15,5 8,5 19,0 8,5 6,5 8 4 20 11 WSW 1017,7 60 0,0
16.03.2019 13:00:00 14,0 6,8 19,0 7,7 6,5 8 5 17 9 SW 1019,1 55 0,0
16.03.2019 12:00:00 12,7 6,7 15,9 6,8 6,4 0 0 12 7 N 1020,0 58 0,0
16.03.2019 11:00:00 11,0 6,1 12,7 6,3 6,5 3 2 11 6 S 1021,3 41 0,0
16.03.2019 10:00:00 9,0 5,9 9,9 5,9 6,5 7 4 14 8 SE 1022,5 19 0,0
16.03.2019 09:00:00 6,7 4,9 6,2 5,9 6,4 8 5 15 8 E 1023,4 12 0,0
16.03.2019 08:00:00 4,3 4,0 2,2 6,1 6,5 10 6 15 8 NE 1024,0 0,8 0,0
16.03.2019 07:00:00 3,3 3,0 2,6 6,3 6,5 12 7 22 12 NE 1024,5 8 0,0
16.03.2019 06:00:00 4,1 3,7 2,8 6,5 6,5 10 6 17 9 ENE 1024,5 19 0,2
16.03.2019 05:00:00 4,9 4,2 2,9 6,7 6,4 12 7 16 9 NE 1024,2 30 0,0
16.03.2019 04:00:00 5,6 4,6 3,7 6,8 6,4 7 4 15 8 NE 1024,0 41 0,0
16.03.2019 03:00:00 6,3 5,6 4,6 6,9 6,4 10 5 14 8 NNE 1024,5 34 0,0
16.03.2019 02:00:00 7,3 6,2 6,5 7,0 6,4 8 5 15 8 NNE 1025,1 48 0,0
16.03.2019 01:00:00 7,2 6,5 6,2 7,1 6,4 10 6 15 8 NE 1025,3 45 0,0
16.03.2019 00:00:00 7,8 6,9 7,3 7,2 6,4 3 2 9 5 ENE 1025,7 21 0,0
15.03.2019 23:00:00 8,0 6,9 7,4 7,2 6,4 7 4 19 10 NE 1025,4 26 0,0
15.03.2019 22:00:00 8,1 7,3 7,6 7,3 6,4 5 3 8 5 SE 1025,3 13 0,2
15.03.2019 21:00:00 8,6 7,7 7,9 7,4 6,4 7 4 13 7 NNE 1024,9 15 0,0
15.03.2019 20:00:00 8,7 7,9 8,0 7,4 6,4 5 3 9 5 ENE 1024,3 19 0,0
15.03.2019 19:00:00 9,0 8,2 8,5 7,4 6,3 5 3 10 5 ESE 1023,8 20 0,4
15.03.2019 18:00:00 9,5 8,1 9,0 7,3 6,3 6 3 18 10 NNW 1022,8 7 0,0
15.03.2019 17:00:00 9,5 8,1 9,4 7,1 6,2 10 5 16 8 ENE 1022,5 52 0,0
15.03.2019 16:00:00 9,1 7,9 8,9 6,9 6,2 10 5 17 9 ESE 1022,8 15 2,0
15.03.2019 15:00:00 9,9 7,1 9,3 6,5 6,2 11 6 19 11 ESE 1022,4 60 0,0
15.03.2019 14:00:00 9,4 6,7 8,9 6,0 6,3 12 7 20 11 ESE 1022,8 60 0,0
15.03.2019 13:00:00 8,4 6,2 8,1 5,6 6,3 11 6 19 10 E 1023,8 12 0,0
15.03.2019 12:00:00 7,5 6,0 6,8 5,4 6,4 10 5 19 10 E 1024,0 55 0,4
15.03.2019 11:00:00 6,4 5,0 6,0 5,2 6,4 12 7 21 11 E 1024,0 10 0,0
15.03.2019 10:00:00 5,7 4,5 4,9 5,1 6,4 9 5 27 15 ESE 1024,1 19 0,2
15.03.2019 09:00:00 4,9 3,7 4,1 5,1 6,4 14 8 27 15 SE 1024,0 60 0,2
15.03.2019 08:00:00 4,6 3,6 3,9 5,1 6,5 16 9 27 14 SE 1023,3 7 0,2
15.03.2019 07:00:00 4,5 3,2 3,8 5,1 6,5 19 10 31 17 SE 1022,6 11 1,0
15.03.2019 06:00:00 4,1 3,2 3,7 5,1 6,7 23 12 37 20 SE 1022,4 3,1 2,0
15.03.2019 05:00:00 4,0 3,3 3,5 5,1 6,7 19 11 30 16 SE 1021,5 3,8 2,0
15.03.2019 04:00:00 3,8 3,1 3,3 5,1 6,7 16 9 27 15 SE 1021,3 3,3 2,6
15.03.2019 03:00:00 3,5 2,8 3,1 5,2 6,8 10 6 25 14 SE 1021,1 3,4 1,6
15.03.2019 02:00:00 3,3 2,7 3,1 5,2 6,8 14 8 26 14 SE 1021,4 3,2 -
15.03.2019 01:00:00 3,3 2,7 2,8 5,3 6,9 4 2 22 12 NW 1021,3 4,3 1,6
15.03.2019 00:00:00 3,1 2,4 2,6 5,4 6,9 8 4 22 12 E 1021,2 5 2,0
14.03.2019 23:00:00 2,8 2,1 2,5 5,5 6,9 15 8 24 13 SE 1021,0 4,5 0,8
14.03.2019 22:00:00 2,7 2,0 2,4 5,6 6,9 11 6 21 11 ESE 1021,0 4,7 0,6
14.03.2019 21:00:00 3,0 2,0 2,7 5,7 6,9 12 6 18 10 SE 1020,7 7 1,4
14.03.2019 20:00:00 2,9 2,2 2,7 5,8 6,9 10 6 16 9 ESE 1020,6 10 2,5
14.03.2019 19:00:00 3,2 2,3 2,8 5,9 6,9 9 5 20 11 SSE 1020,2 7 2,6
14.03.2019 18:00:00 3,5 2,3 3,2 6,1 6,9 15 8 30 16 SSE 1019,8 7 2,8
14.03.2019 17:00:00 4,3 2,8 3,8 6,1 6,9 12 6 26 14 SSE 1019,4 7 2,2
14.03.2019 16:00:00 4,5 2,7 3,8 6,2 6,9 9 5 32 18 SSE 1020,0 10 2,0
14.03.2019 15:00:00 4,5 2,7 3,9 6,2 6,9 17 9 29 16 SSE 1021,1 9 1,2
14.03.2019 14:00:00 4,9 2,8 4,4 6,1 6,9 14 8 29 16 SSE 1021,8 18 0,4
14.03.2019 13:00:00 5,1 2,6 5,0 6,0 6,9 14 8 28 15 SSE 1022,8 57 0,0
14.03.2019 12:00:00 5,2 2,9 4,7 5,9 6,9 14 7 25 13 S 1023,5 9 0,6
14.03.2019 11:00:00 4,5 2,8 4,1 5,8 6,9 0 0 12 6 N 1024,0 9 0,6
14.03.2019 10:00:00 4,0 2,2 3,7 5,7 6,9 10 5 20 11 SW 1024,6 9 0,6
14.03.2019 09:00:00 3,9 2,3 3,5 5,7 6,9 11 6 17 9 SE 1024,4 10 0,4
14.03.2019 08:00:00 3,8 2,2 3,2 5,8 6,9 8 4 13 7 SSW 1024,2 13 0,2
14.03.2019 07:00:00 3,5 2,3 2,8 5,8 6,9 0 0 9 5 N 1024,1 19 0,0
14.03.2019 06:00:00 3,8 1,8 3,1 5,9 6,9 5 3 13 7 SW 1024,1 32 0,0
14.03.2019 05:00:00 3,8 2,0 3,0 6,0 6,9 9 5 16 9 SW 1024,0 46 0,0
14.03.2019 04:00:00 3,5 2,6 2,9 6,1 6,9 0 0 5 3 N 1023,9 16 0,2
14.03.2019 03:00:00 3,6 2,6 3,3 6,2 6,9 3 1 7 4 N 1024,2 4,8 0,4
14.03.2019 02:00:00 3,5 2,5 3,1 6,3 6,9 4 2 12 6 N 1024,1 13 0,2
14.03.2019 01:00:00 3,6 2,1 3,0 6,4 6,9 4 2 11 6 SE 1023,8 40 1,0
14.03.2019 00:00:00 3,7 2,4 3,1 6,6 6,9 6 3 22 12 N 1023,4 9 0,2
13.03.2019 23:00:00 3,8 2,3 3,2 6,7 6,9 5 3 11 6 ESE 1023,3 40 0,4
13.03.2019 22:00:00 4,1 1,3 3,0 6,8 6,9 5 3 17 9 SE 1023,0 41 0,8
13.03.2019 21:00:00 4,6 2,1 3,8 7,0 6,9 0 0 18 10 N 1022,2 12 0,0
13.03.2019 20:00:00 4,6 2,5 4,1 7,1 6,9 7 4 10 5 E 1021,5 57 0,0
13.03.2019 19:00:00 4,5 2,0 3,9 7,2 6,9 4 2 9 5 ESE 1021,3 60 0,0
13.03.2019 18:00:00 5,0 1,8 4,9 7,3 6,9 4 2 9 5 ESE 1021,0 60 0,0
13.03.2019 17:00:00 4,9 1,6 4,7 7,3 6,9 5 3 13 7 SSW 1021,1 58 0,0
13.03.2019 16:00:00 3,9 1,9 3,6 7,3 6,9 8 4 17 9 ESE 1021,2 60 1,2

tt = Température de l'air
td = dewpoint
tt 5cm = Température de l'air 5cm
tt -20cm = Température de l'air -20cm
tt -100cm = Température de l'air -100cm
ff = Vitesse du vent
fx = gusts
dd = Direction du vent
ppp = reduced air pressure
vv = visibility
rr = Quantités de précipitations

stations d'obs. à proximité